Regional Weather Roundup
Issued by NWS

Home | Current Version | Previous Version | Text Only | Print | Product List | Glossary On
Versions: 1 2 3 4 5 6 7 8 9 10 11 12 13 14 15 16 17 18 19 20 21 22 23 24 25 26 27 28 29 30 31 32 33 34 35 36 37 38 39 40 41 42 43 44 45 46 47 48 49 50
000
ASUS45 KREV 010710
RWRNV
NEVADA REGIONAL WEATHER ROUNDUP
NATIONAL WEATHER SERVICE RENO NV
1200 AM PDT SUN MAY 01 2016

NOTE: "FAIR" INDICATES FEW OR NO CLOUDS BELOW 12,000 FEET WITH NO
SIGNIFICANT WEATHER AND/OR OBSTRUCTIONS TO VISIBILITY.

NVZ001-003-004-010800-
WESTERN NEVADA

CITY           SKY/WX    TMP DP  RH WIND       PRES   REMARKS
RENO           PTCLDY    46  32  58 CALM      30.07F
CARSON CITY    FAIR      41  32  70 CALM      30.07F
MINDEN         FAIR      36  32  87 E5        30.08F
SLIDE MTN        N/A     28  27  93 E46         N/A
FALLON         PTCLDY    45  28  51 N7        30.04S
LOVELOCK       CLEAR     48  31  51 NE8       30.05S
HAWTHORNE      CLOUDY    52  37  58 NW8       30.05S
$$

NVZ002-CAZ072-073-010800-
NORTHERN AND CENTRAL SIERRA

CITY           SKY/WX    TMP DP  RH WIND       PRES   REMARKS
S. LAKE TAHOE  CLEAR     41  29  62 VRB3      30.07F
TRUCKEE        PTCLDY    34  28  80 S3        30.09S
SQUAW VLY 8000   N/A     36  27  69 E16         N/A
SUSANVILLE     CLEAR     48  32  53 SE7       30.07S
BLUE CANYON    CLEAR     50  25  37 E16G36    29.98F
MAMMOTH LAKES  CLOUDY    41  30  66 W7        30.11S
BRIDGEPORT     CLOUDY    39  32  76 CALM      30.08F
$$

NVZ030-031-036-010800-
NORTHERN NEVADA

CITY           SKY/WX    TMP DP  RH WIND       PRES   REMARKS
ELKO           CLOUDY    42  35  76 CALM      30.07R
WINNEMUCCA     PTCLDY    46  34  62 NE16      30.08S
WENDOVER       CLOUDY    50  37  62 N18       30.06R
$$

NVZ035-037-010800-
CENTRAL NEVADA

CITY           SKY/WX    TMP DP  RH WIND       PRES   REMARKS
ELY            MOCLDY    38  35  89 NE12      30.04S
EUREKA           N/A     39  34  82 N5        30.06R
$$

NVZ013-014-010800-
SOUTH CENTRAL NEVADA

CITY           SKY/WX    TMP DP  RH WIND       PRES   REMARKS
TONOPAH        CLOUDY    49  33  54 N17       30.02R
$$

NVZ017-020-022-010800-
SOUTHERN NEVADA

CITY           SKY/WX    TMP DP  RH WIND       PRES   REMARKS
LAS VEGAS      PTCLDY    61  46  57 N10       29.79S
N. LAS VEGAS   MOCLDY    58  47  66 N8        29.82F
NELLIS AFB     PTCLDY    58  52  79 E2        29.83R
HENDERSON      PTCLDY    53  50  89 S6        29.85F
MERCURY        PTCLDY    51  45  79 NE7       29.88S
$$



USA.gov is the U.S. government's official web portal to all federal, state and local government web resources and services.